Tracking 27188 objects as of 1-Apr-2023
HD Live streaming from Space Station
objects crossing your sky now

STARLINK-5407

Track STARLINK-5407 now!
10-day predictions
STARLINK-5407 is classified as:


NORAD ID: 54858
Int'l Code: 2022-177AQ
Perigee: 565.8 km
Apogee: 566.8 km
Inclination: 43.0 °
Period: 95.8 minutes
Semi major axis: 6937 km
RCS: Unknown
Launch date: December 28, 2022
Source: United States (US)
Launch site: AIR FORCE EASTERN TEST RANGE (AFETR)
Your satellite tracking list
Your tracking list is empty




NASA's NSSDC Master Catalog

Two Line Element Set (TLE):
1 54858U 22177AQ  23090.99720894 -.00001502  00000-0 -96199-4 0  9999
2 54858  42.9987 194.5013 0000726 293.7687  66.3079 15.02520529 14615
Source of the keplerian elements: AFSPC